Dutch Harbor, AK

4:48 PM AKDT on September 23, 2017 (GMT -0800)
Unalaska

Weather History for PADU - May, 2013

Change the Weather History Date:

Wednesday, May 8, 2013

  Actual Average Record
Temperature  
Mean Temperature 38 °F -  
Max Temperature 39 °F 44 °F 56 °F (1951)
Min Temperature 37 °F 34 °F 28 °F (1983)
Degree Days  
Heating Degree Days 27    
Moisture  
Dew Point 33 °F    
Average Humidity 83    
Maximum Humidity 89    
Minimum Humidity 73    
Precipitation  
Precipitation 0.07 in - - ()
Sea Level Pressure  
Sea Level Pressure 30.11 in    
Wind  
Wind Speed 11 mph (NNE)    
Max Wind Speed 22 mph    
Max Gust Speed 32 mph    
Visibility 10 miles    
Events Rain    
Averages and records for this station are not official NWS values.
T = Trace of Precipitation, MM = Missing Value Source: NWS Daily Summary

Daily Weather History Graph

Daily Weather History Graph

Search for Another Location

Airport or City:

Trip Planner

Search our weather history database for the weather conditions in past years. The results will help you decide how hot, cold, wet, or windy it might be!

Date:

Astronomy

May. 08, 2013 Rise Set
Actual Time 7:15 AM AKDT 10:51 PM AKDT
Civil Twilight 6:31 AM AKDT 11:34 PM AKDT
Nautical Twilight 5:32 AM AKDT 12:35 AM AKDT
Astronomical Twilight 3:55 AM AKDT 2:17 AM AKDT
Moon 6:42 AM AKDT (5/8) 9:55 PM AKDT (5/8)
Length of Visible Light 17h 02m
Length of Day
15h 35m
Waning Crescent, 1% of the Moon is Illuminated
May 8
Waning Crescent
May 9
New
May 17
First Quarter
May 24
Full
May 31
Last Quarter

Hourly Weather History & Observations

Time (AKDT) Temp. Windchill Dew Point Humidity Pressure Visibility Wind Dir Wind Speed Gust Speed Precip Events Conditions
12:20 AM 39.2 °F 33.6 °F 33.8 °F 81% 30.12 in 10.0 mi NNE 8.1 mph - N/A   Overcast
12:56 AM 39.0 °F 34.8 °F 34.0 °F 82% 30.14 in 10.0 mi NNE 5.8 mph - N/A   Overcast
1:34 AM 39.2 °F 37.0 °F 33.8 °F 81% 30.12 in 10.0 mi NNE 3.5 mph - N/A   Overcast
1:56 AM 39.9 °F 36.7 °F 32.0 °F 73% 30.14 in 10.0 mi NE 4.6 mph - N/A   Overcast
2:56 AM 39.9 °F 34.5 °F 32.0 °F 73% 30.13 in 10.0 mi North 8.1 mph - N/A   Overcast
3:56 AM 39.0 °F 32.3 °F 34.0 °F 82% 30.13 in 10.0 mi NNE 10.4 mph - N/A   Overcast
4:46 AM 37.4 °F 29.3 °F 33.8 °F 87% 30.10 in 10.0 mi NNE 12.7 mph - 0.00 in   Overcast
4:56 AM 37.9 °F 30.0 °F 34.0 °F 86% 30.12 in 10.0 mi NNE 12.7 mph - 0.00 in   Overcast
5:34 AM 37.4 °F 28.5 °F 33.8 °F 87% 30.09 in 10.0 mi NNE 15.0 mph - N/A   Overcast
5:56 AM 37.9 °F 30.9 °F 33.1 °F 83% 30.11 in 10.0 mi NE 10.4 mph - N/A   Overcast
6:17 AM 37.4 °F 29.8 °F 33.8 °F 87% 30.09 in 10.0 mi NNE 11.5 mph - N/A   Overcast
6:29 AM 37.4 °F 30.3 °F 33.8 °F 87% 30.09 in 10.0 mi NNE 10.4 mph - N/A   Overcast
6:30 AM 37.4 °F 30.3 °F 33.8 °F 87% 30.09 in 10.0 mi NNE 10.4 mph - N/A   Overcast
6:56 AM 37.9 °F 30.5 °F 34.0 °F 86% 30.11 in 10.0 mi NNE 11.5 mph - N/A   Overcast
7:56 AM 37.9 °F 28.2 °F 34.0 °F 86% 30.11 in 10.0 mi NNE 18.4 mph 23.0 mph N/A   Overcast
8:39 AM 37.4 °F 27.2 °F 33.8 °F 87% 30.10 in 10.0 mi NE 19.6 mph 28.8 mph N/A   Overcast
8:56 AM 37.9 °F 27.9 °F 33.1 °F 83% 30.12 in 10.0 mi NE 19.6 mph 25.3 mph N/A   Overcast
9:56 AM 37.9 °F 28.9 °F 32.0 °F 79% 30.13 in 10.0 mi NE 16.1 mph 28.8 mph N/A   Overcast
10:56 AM 37.9 °F 27.3 °F 32.0 °F 79% 30.13 in 10.0 mi NE 21.9 mph 28.8 mph N/A   Overcast
12:56 PM 37.9 °F 28.9 °F 32.0 °F 79% 30.13 in 10.0 mi NNE 16.1 mph 29.9 mph N/A   Overcast
1:56 PM 37.9 °F 27.9 °F 32.0 °F 79% 30.12 in 10.0 mi NNE 19.6 mph 32.2 mph N/A   Overcast
2:56 PM 37.9 °F 27.9 °F 32.0 °F 79% 30.12 in 10.0 mi NE 19.6 mph 32.2 mph N/A   Overcast
3:56 PM 37.9 °F 27.3 °F 33.1 °F 83% 30.11 in 10.0 mi NNE 21.9 mph 28.8 mph N/A   Overcast
4:56 PM 37.9 °F 29.2 °F 32.0 °F 79% 30.11 in 10.0 mi NNE 15.0 mph 28.8 mph N/A   Overcast
5:56 PM 37.0 °F 28.5 °F 33.1 °F 86% 30.10 in 10.0 mi NE 13.8 mph 28.8 mph N/A   Overcast
6:56 PM 37.0 °F 27.0 °F 33.1 °F 86% 30.09 in 10.0 mi NNE 18.4 mph 25.3 mph 0.00 in Rain Light Rain
7:56 PM 37.0 °F 27.4 °F 33.1 °F 86% 30.09 in 7.0 mi NNE 17.3 mph 25.3 mph 0.01 in Rain Light Rain
8:56 PM 37.9 °F 30.0 °F 34.0 °F 86% 30.08 in 10.0 mi NNE 12.7 mph 21.9 mph 0.03 in Rain Light Rain
9:56 PM 37.9 °F 31.5 °F 34.0 °F 86% 30.09 in 8.0 mi NNE 9.2 mph 20.7 mph 0.00 in   Overcast
10:56 PM 37.9 °F 30.5 °F 35.1 °F 89% 30.09 in 9.0 mi North 11.5 mph 27.6 mph 0.01 in Rain Light Rain
11:56 PM 37.9 °F 29.6 °F 35.1 °F 89% 30.10 in 10.0 mi North 13.8 mph 21.9 mph 0.02 in Rain Light Rain